Weather in Dresden

Germany     51˚02′58″N   13˚44′16″E
temp.,
°C
wind,
m/s
gust,
m/s
humid.,
%
clouds,
%
prec.,
mm/h
давл.,
hPa
HPBL,
m
27 november, fri
fri2701:00+4˚ene017879 0.0 102236
04:00+4˚se118271 0.0 102240
07:00+4˚se118272 0.0 102262
10:00+5˚se127777 0.0 1023106
13:00+8˚n116748 0.0 1022384
16:00+5˚ese117612 0.0 102239
19:00+4˚e11819 0.0 102245
22:00+3˚sse11820 0.0 102324
28 november, sat
sat2801:00+3˚ene01841 0.0 102225
04:00+2˚ene11860 0.0 102225
07:00+1˚ene119033 0.0 102322
10:00+3˚ne12851 0.0 1024247
13:00+4˚ne237517 0.0 1024495
16:00+3˚ene248440 0.0 1024364
19:00+3˚ene357369 0.0 1025689
22:00+2˚ene3575100 0.0 1026515
29 november, sun
sun2901:00+1˚ene248272 0.0 1026244
04:00nne118523 0.0 1025115
07:00+1˚nne147859 0.0 1025435
10:00+1˚nw228082 0.0 1026265
13:00+2˚nnw347688 0.0 1025530
16:00+2˚nw258997 0.1 1024365
19:00+2˚nnw259398 0.3 1025339
22:00+1˚nw249293 0.1 1026254
30 november, mon
mon3001:00+1˚wnw239091 0.1 1027222
04:00+1˚wnw2486100 0.0 1027321
07:00w249198 0.1 1029234
10:00+1˚wnw238292 0.0 1029444
13:00+2˚w237293 0.1 1030674
16:00+1˚w237463 0.0 1029391
19:00ssw127732 0.0 103054
22:00ssw22760 0.0 103064
1 december, tue
tue101:00ssw23728 0.0 102877
04:00+1˚sw2862100 0.0 1027301
07:00+2˚sw3957100 0.0 1027315
10:00+4˚wsw51159100 0.0 1026538
13:00+4˚wsw71481100 0.6 1024568
16:00+4˚w71389100 2.4 1023546
19:00+4˚wnw41093100 3.5 1024413
22:00+4˚w3795100 0.3 1024322